Powrót do katalogu

OPS 4682 DEB

AktywnyPO
NORAD 38404·DEBRIS·🇺🇸 United States

Wystrzelony Apr 3, 1965 z Vandenberg Space Force Base

Loading…

Następne Przeloty (najbliższe 24 godziny)

TLE

ŚwieżeSource: Space-Track

Epoka: Sep 14, 2026, 06:35 UTC

1 38404U 65027DH  26257.27494690 -.00000177  00000-0 -61604-3 0  9999
2 38404  90.2483   8.3128 0021195  72.2682 288.0751 12.99776419676391

Śledź OPS 4682 DEB w czasie rzeczywistym z AllMySat

Download on the App Store